NIMIQ 6

Last updated on Fri Jul 11 2025 00:02:43 GMT+0000 (Coordinated Universal Time)

1 38342U 12026A 25191.52405727 -.00000161 00000+0 00000+0 0 9998 2 38342 0.0531 271.0134 0002817 199.7021 275.5328 1.00272261 46986
UTC large
Height (km)
Speed (km/s)
/
Latitude / Longitude
Inclination (degrees)
Orbital Period (minutes)
Azimuth
Elevation
Range (km)
Doppler Factor

Next 0 passes for location: London (51.5072 / 0.1276)

Sorry there are no passes over London.